TIME,DELAY(SENSOR),PRES,T(CTD),SAL,OXYGEN,RAWTEMP,T(OPTODE),TCPHASE,TURBIDITY,TURBIDITY_GAIN,FLUOR,BETA,CDOM,ED411.5,ED443.8,ED489.6,PAR,COMP,TILT,TILTY(TILT),CHECK
1341683526,6466,248.3300018310547000,4.9130001068115230,34.9863014221191400,350.4677124023437500,761.4658813476562000,4.8849601745605470,34.0877189636230500,16,3,48,104,64,2147246934,2147558212,2147573576,2147364662,2987,0,-12,36422
1341683587,6504,245.0000000000000000,4.9128999710083010,34.9863014221191400,350.3081970214844000,761.4639282226562000,4.8850331306457520,34.0930595397949200,16,3,50,102,64,2147247555,2147557608,2147568868,2147363094,2669,0,-12,38092
1341683648,6468,241.6199951171875000,4.9127998352050780,34.9860992431640600,350.3891906738281000,761.4589843750000000,4.8852038383483890,34.0903205871582000,16,3,48,103,64,2147245480,2147559574,2147572205,2147362212,2444,0,-11,30816
1341683709,6467,238.2500000000000000,4.9124999046325680,34.9863014221191400,350.3575134277344000,761.4606933593750000,4.8851451873779300,34.0912590026855500,16,3,48,105,64,2147245714,2147557508,2147571647,2147364131,2151,0,-10,52262
1341683770,6468,234.8800048828125000,4.9127998352050780,34.9858016967773440,350.4661865234375000,761.4655761718750000,4.8849740028381350,34.0878791809082000,16,3,48,105,64,2147245768,2147558202,2147572616,2147362687,1874,0,-12,7753
1341683831,6468,231.5399932861328000,4.9126000404357910,34.9858016967773440,350.2955017089844000,761.4710083007812000,4.8847851753234860,34.0936088562011700,16,3,50,110,62,2147248004,2147559117,2147570874,2147358916,1618,0,-12,39808
1341683892,6469,228.1399993896484400,4.9116001129150390,34.9864997863769500,350.4259033203125000,761.4796752929688000,4.8844809532165530,34.0893592834472660,16,3,48,104,64,2147247985,2147559203,2147570024,2147360896,1385,0,-12,12688
1341683953,6468,224.7500000000000000,4.9117999076843260,34.9860992431640600,350.3059997558594000,761.4824218750000000,4.8843841552734375,34.0933990478515600,16,3,48,106,64,2147248008,2147561206,2147570984,2147362582,1122,0,-12,34002
1341684014,6468,221.3699951171875000,4.9112000465393070,34.9864997863769500,350.3344116210937500,761.4907836914062000,4.8840899467468260,34.0927505493164060,16,3,50,104,64,2147248804,2147560730,2147572859,2147358829,842,0,-12,49268
1341684075,6469,218.0399932861328000,4.9109997749328610,34.9864006042480500,350.4204101562500000,761.4965209960938000,4.8838901519775390,34.0898399353027340,16,3,50,104,65,2147245023,2147561019,2147572872,2147361905,555,0,-12,24639
1341684138,6467,214.5700073242187500,4.9109001159667970,34.9863014221191400,350.2540893554687500,761.5034790039062000,4.8836479187011720,34.0956916809082000,16,3,50,106,64,2147246751,2147559432,2147571999,2147361554,215,0,-12,30031
1341684199,6468,211.2599945068359400,4.9106998443603520,34.9863014221191400,350.4450988769531000,761.5101928710938000,4.8834128379821780,34.0891799926757800,16,3,48,106,65,2147244799,2147562002,2147574404,2147358468,3361,0,-12,63529
1341684262,6467,207.8600006103515600,4.9109997749328610,34.9858016967773440,350.2699890136719000,761.5136718750000000,4.8832869529724120,34.0952110290527340,16,3,49,109,64,2147245110,2147561754,2147572315,2147362742,3002,0,-12,36415
1341684323,6503,204.6100006103515600,4.9105000495910645,34.9860992431640600,350.3369140625000000,761.5183105468750000,4.8831272125244140,34.0932693481445300,39,3,50,110,64,2147244346,2147558591,2147576511,2147362989,2712,0,-12,25825
1341684386,6466,201.2899932861328000,4.9102997779846190,34.9861984252929700,350.5220947265625000,761.5225219726562000,4.8829841613769530,34.0871086120605500,17,3,48,108,63,2147244264,2147561133,2147576296,2147360479,2553,0,-12,21945
1341684447,6467,198.1100006103515600,4.9099998474121090,34.9860992431640600,350.3210144042969000,761.5327758789062000,4.8826217651367190,34.0939216613769500,16,3,48,108,64,2147246746,2147559976,2147578880,2147363158,2287,0,-12,27626
1341684510,6467,194.8800048828125000,4.9095001220703125,34.9864006042480500,350.4172973632812500,761.5360717773438000,4.8825039863586430,34.0907592773437500,16,3,48,107,64,2147247858,2147561874,2147577064,2147364630,2036,0,-12,21991
1341684571,6504,191.7500000000000000,4.9093999862670900,34.9864006042480500,350.6329956054687500,761.5402832031250000,4.8823590278625490,34.0834999084472660,16,3,49,111,64,2147247186,2147562815,2147577366,2147363922,1763,0,-12,55546
1341684634,6468,188.5700073242187500,4.9096999168396000,34.9858016967773440,350.5898132324219000,761.5471801757812000,4.8821182250976560,34.0851593017578100,16,3,48,105,64,2147247652,2147559761,2147576365,2147360598,1475,0,-10,34434
1341684695,6466,185.5000000000000000,4.9088997840881350,34.9864997863769500,350.5465087890625000,761.5465698242188000,4.8821368217468260,34.0863609313964840,16,3,48,109,64,2147246623,2147560434,2147575108,2147362916,1255,0,-12,54443
1341684758,6468,182.3500061035156200,4.9095001220703125,34.9859008789062500,350.5628967285156000,761.5524291992188000,4.8819351196289060,34.0861091613769500,16,3,49,110,64,2147245343,2147560611,2147582582,2147359587,946,0,-12,16965
1341684819,6468,179.3300018310547000,4.9091000556945800,34.9860000610351560,350.4789123535156000,761.5562744140625000,4.8817977905273440,34.0891990661621100,16,3,50,110,64,2147246504,2147561009,2147581069,2147362427,678,0,-12,40829
1341684882,6468,176.2599945068359400,4.9095997810363770,34.9854011535644500,350.4045104980469000,761.5579223632812000,4.8817420005798340,34.0915298461914060,16,3,49,111,64,2147243798,2147559638,2147583172,2147361091,288,0,-12,47851
1341684943,6503,173.2799987792968800,4.9088997840881350,34.9860000610351560,350.4074096679687500,761.5618896484375000,4.8816008567810060,34.0915603637695300,18,3,50,115,64,2147243789,2147558966,2147582774,2147358843,3541,0,-12,9843
1341685006,6467,170.2400054931640600,4.9088001251220700,34.9860000610351560,350.3927917480469000,761.5692749023438000,4.8813419342041020,34.0921516418457000,16,3,50,106,64,2147242481,2147561755,2147586161,2147365677,3127,0,-12,53665
1341685067,6469,167.3200073242187500,4.9091000556945800,34.9856986999511700,350.5443115234375000,761.5682983398438000,4.8813757896423340,34.0870094299316400,16,3,48,112,64,2147247011,2147561937,2147581343,2147365891,2857,0,-12,26647
1341685130,6467,164.3200073242187500,4.9088997840881350,34.9860000610351560,350.4318847656250000,761.5679931640625000,4.8813900947570800,34.0910301208496100,13,3,48,111,64,2147247400,2147561110,2147591766,2147364625,2556,0,-12,37357
1341685191,6468,161.4900054931640600,4.9088001251220700,34.9858016967773440,350.4341125488281000,761.5698852539062000,4.8813190460205080,34.0908889770507800,16,3,49,109,64,2147247944,2147559720,2147587373,2147364717,2319,0,-12,19592
1341685254,6466,158.5700073242187500,4.9088001251220700,34.9856986999511700,350.5040893554687500,761.5723876953125000,4.8812332153320310,34.0886993408203100,16,3,50,112,64,2147244594,2147559866,2147587698,2147361746,2073,0,-12,3494
1341685315,6503,155.7799987792968800,4.9081997871398930,34.9863014221191400,350.2084960937500000,761.5723876953125000,4.8812332153320310,34.0984916687011700,16,3,49,112,64,2147244936,2147563176,2147591427,2147364635,1835,0,-12,37760
1341685378,6468,152.9799957275390600,4.9081001281738280,34.9863014221191400,350.3519897460937500,761.5770263671875000,4.8810710906982420,34.0939407348632800,16,3,49,115,64,2147245252,2147560859,2147605983,2147366330,1597,0,-12,59447
1341685439,6469,150.2500000000000000,4.9085001945495605,34.9858016967773440,350.2236022949219000,761.5712280273438000,4.8812770843505860,34.0981407165527340,16,3,50,114,64,2147246719,2147559999,2147601097,2147364530,1341,0,-12,53211
1341685502,6468,147.5299987792968800,4.9082999229431150,34.9860992431640600,350.2473144531250000,761.5759277343750000,4.8811111450195310,34.0972900390625000,16,3,49,114,63,2147241279,2147561883,2147594262,2147364539,1097,0,-11,33178
1341685563,6468,144.9100036621093800,4.9085001945495605,34.9860992431640600,350.1848144531250000,761.5656127929688000,4.8814721107482910,34.0992393493652340,11,3,49,113,64,2147245732,2147560269,2147594861,2147363003,822,0,-12,19459
1341685626,6468,142.2500000000000000,4.9092998504638670,34.9855003356933600,350.1372070312500000,761.5587158203125000,4.8817138671875000,34.1005210876464840,20,3,50,113,64,2147246468,2147564310,2147636150,2147372890,467,0,-12,41376
1341685687,6466,139.7200012207031200,4.9092998504638670,34.9855003356933600,350.2084960937500000,761.5573120117188000,4.8817620277404785,34.0983200073242200,16,3,50,113,63,2147245178,2147562189,2147608707,2147364136,183,0,-12,40105
1341685750,6468,137.1399993896484400,4.9092998504638670,34.9859008789062500,350.1231079101562500,761.5471801757812000,4.8821129798889160,34.1008110046386700,16,3,50,123,65,2147242897,2147561755,2147598966,2147365763,3489,0,-12,45787
1341685811,6468,134.7100067138672000,4.9100999832153320,34.9855995178222660,350.0444946289062500,761.5341796875000000,4.8825697898864750,34.1031799316406250,16,3,50,120,64,2147247697,2147563771,2147616831,2147368301,3104,0,-11,49286
1341685902,6468,130.4299926757812500,4.9107999801635740,34.9854011535644500,349.9681091308594000,761.5308227539062000,4.8826899528503420,34.1060295104980500,16,3,48,120,64,2147249581,2147570152,2147659460,2147375245,2717,0,-12,19248
1341685963,6467,126.7200012207031200,4.9113001823425290,34.9855003356933600,350.0502929687500000,761.5084228515625000,4.8834719657897950,34.1023292541503900,16,3,50,118,63,2147244465,2147569110,2147651579,2147376511,2589,0,-12,2925
1341686026,6467,122.9000015258789000,4.9117999076843260,34.9855003356933600,350.1258850097656000,761.4918823242188000,4.8840517997741700,34.0997886657714840,16,3,50,120,64,2147246760,2147570253,2147661261,2147375524,2369,0,-12,56394
1341686087,6468,119.2699966430664000,4.9128999710083010,34.9854011535644500,350.1528015136719000,761.4459838867188000,4.8856558799743650,34.0977210998535160,16,3,50,118,64,2147245764,2147572763,2147672150,2147374861,2125,0,-12,48866
1341686150,6467,115.5400009155273400,4.9147000312805180,34.9855003356933600,350.0098876953125000,761.4050292968750000,4.8870940208435060,34.1020812988281250,16,3,50,119,64,2147246134,2147570477,2147661009,2147372621,1905,0,-12,12527
1341686211,6467,111.9899978637695300,4.9152002334594730,34.9850006103515600,349.8121032714844000,761.3994140625000000,4.8872928619384770,34.1082992553710940,16,3,50,120,65,2147245686,2147576963,2147704086,2147378728,1660,0,-12,2093
1341686274,6467,108.3099975585937500,4.9149999618530270,34.9856986999511700,349.9921875000000000,761.3875732421875000,4.8877029418945310,34.1021003723144500,13,3,50,120,64,2147243780,2147576795,2147713540,2147383181,1492,0,-12,17120
1341686335,6469,104.8300018310546900,4.9190998077392580,34.9846000671386700,349.8528137207031000,761.2805786132812000,4.8914489746093750,34.1046409606933600,16,3,49,120,64,2147249645,2147580748,2147727043,2147385641,1192,0,-12,43901
1341686398,6468,101.2900009155273400,4.9201002120971680,34.9852981567382800,349.8959960937500000,761.2427978515625000,4.8927750587463380,34.1024894714355500,16,3,50,120,64,2147246472,2147580959,2147738980,2147387441,909,0,-12,49271
1341686459,6466,97.8799972534179700,4.9225997924804690,34.9850006103515600,349.9194946289062500,761.1531982421875000,4.8959078788757320,34.1001586914062500,16,3,50,123,64,2147250175,2147580250,2147724936,2147386993,663,0,-12,21843
1341686522,6468,94.4599990844726600,4.9261999130249020,34.9841995239257800,350.0397033691406000,761.0913696289062000,4.8980708122253420,34.0946311950683600,16,3,49,116,64,2147249969,2147588470,2147793754,2147398134,233,0,-12,57271
1341686583,6503,91.1699981689453100,4.9260001182556150,34.9845008850097660,350.3633117675781000,761.0822143554688000,4.8983960151672360,34.0838012695312500,16,3,50,119,64,2147247309,2147590765,2147785937,2147399203,3571,0,-12,21852
1341686646,6469,87.8099975585937500,4.9342999458312990,34.9842987060546900,350.4075927734375000,760.8618164062500000,4.9061131477355960,34.0775794982910160,16,3,50,123,64,2147247839,2147587875,2147774340,2147399007,3280,0,-12,33327
1341686707,6468,84.5899963378906200,4.9450001716613770,34.9842987060546900,350.3279113769531000,760.4658813476562000,4.9199662208557130,34.0726318359375000,16,3,50,126,65,2147250015,2147589219,2147796676,2147400964,3088,0,-12,2229
1341686770,6468,81.3799972534179700,4.9646000862121580,34.9838981628418000,349.9498901367187500,760.0134277343750000,4.9357991218566895,34.0766601562500000,16,3,52,132,65,2147251771,2147590362,2147761819,2147395418,3027,0,-12,23917
1341686831,6465,78.3399963378906200,4.9853000640869140,34.9846992492675800,349.4609069824219000,759.2755126953125000,4.9616169929504395,34.0784492492675800,16,3,52,132,64,2147247546,2147581498,2147712598,2147389129,2773,0,-12,25794
1341686894,6468,75.2699966430664000,5.0392999649047850,34.9847984313964840,348.9332885742187500,757.9852905273438000,5.0067310333251950,34.0708198547363300,16,3,56,132,65,2147250412,2147590760,2147749558,2147399542,2632,0,-12,23168
1341686955,6468,72.3600006103515600,5.0594000816345215,34.9860000610351560,348.9018859863281000,757.3040161132812000,5.0305461883544920,34.0585098266601560,16,3,56,134,64,2147256296,2147591268,2147767775,2147405128,2300,0,-12,48231
1341687018,6468,69.3300018310546900,5.0977001190185550,34.9864997863769500,348.8493041992187500,756.3320922851562000,5.0645070075988770,34.0411987304687500,16,3,57,136,64,2147257786,2147613238,2147906317,2147437119,2292,0,-12,52046
1341687079,6468,66.5199966430664000,5.1771998405456540,34.9891014099121100,348.6733093261719000,754.1375122070312000,5.1411399841308590,34.0039710998535160,14,3,63,140,65,2147255624,2147593544,2147788145,2147415135,1955,0,-12,29531
1341687142,6503,63.6699981689453100,5.2358999252319340,34.9903984069824200,348.7499084472656000,752.4359130859375000,5.2005062103271480,33.9681282043457000,16,3,70,146,65,2147255921,2147598769,2147791309,2147416511,1817,0,-12,39388
1341687203,6465,60.9700012207031250,5.2493000030517580,34.9920997619628900,349.4584960937500000,751.8568725585938000,5.2206950187683105,33.9327697753906250,16,3,75,142,66,2147261613,2147610303,2147878788,2147443592,1449,0,-12,28202
1341687266,6469,58.1399993896484400,5.3492999076843260,34.9926986694335940,348.9909973144531000,748.7379760742188000,5.3293719291687010,33.8878593444824200,15,3,96,158,66,2147261970,2147613238,2147877325,2147448081,1226,0,-12,7307
1341687327,6468,55.2099990844726560,5.4001002311706540,34.9962997436523440,350.3320922851562500,747.6333007812500000,5.3678297996521000,33.8213691711425800,17,3,116,181,64,2147262673,2147616374,2147873878,2147455588,823,0,-12,58748
1341687390,6469,51.7400016784668000,5.5033998489379880,34.9976005554199200,350.9572143554687500,744.7772827148438000,5.4671750068664550,33.7451705932617200,21,3,166,186,66,2147288648,2147686559,2148302353,2147598353,582,0,-12,13307
1341687451,6469,47.8899993896484400,5.5949997901916500,34.9990997314453100,352.0562133789062500,742.0858154296875000,5.5606899261474610,33.6562690734863300,22,3,196,206,66,2147305759,2147722962,2148417640,2147650440,526,0,-12,16887
1341687539,6471,42.2999992370605500,5.8715000152587890,35.0010986328125000,353.4140014648437500,734.7584838867188000,5.8147349357604980,33.4716911315918000,35,3,351,349,64,2147367267,2147845457,2148851451,2147817362,159,0,-12,54265
1341687600,6470,39.6699981689453100,5.9833998680114750,35.0022010803222660,355.0405883789062500,730.6072998046875000,5.9583230018615720,33.3393707275390600,41,3,404,334,66,2147387099,2147857037,2148755866,2147779674,517,0,-12,40610
1341687663,6470,37.9099998474121100,6.0998001098632810,35.0079002380371100,357.8695068359375000,728.0853271484375000,6.0454330444335940,33.1993484497070300,56,3,522,392,65,2147392337,2147851515,2148670888,2147748058,2677,0,-12,63132
1341687810,6470,36.2900009155273440,6.1191000938415530,35.0097999572753900,361.4843139648437500,726.3865966796875000,6.1040611267089840,33.0508918762207000,56,3,519,448,64,2147516264,2148095085,2149639587,2148144561,2990,0,-12,53052
1341687883,6469,34.0299987792968750,6.3383002281188965,35.0074996948242200,362.5777893066406000,720.8547973632812000,6.2946891784667970,32.9129714965820300,66,3,564,513,66,2147534468,2148063634,2149268612,2148007880,2808,0,-12,1022
1341687974,6470,29.4500007629394530,6.7961001396179200,35.0091018676757800,368.9372863769531000,707.2363281250000000,6.7621860504150390,32.4633293151855500,144,3,686,658,66,2147988498,2148723720,2150830760,2148645361,2966,0,-12,3639
1341688035,6468,25.5300006866455080,7.0187001228332520,35.0127983093261700,376.2120971679687500,700.2473144531250000,7.0011310577392580,32.1141014099121100,106,3,686,721,66,2149256968,2150608228,2155413402,2150557768,2448,0,-11,14393
1341688123,6471,20.7600002288818360,7.4333000183105470,35.0167007446289060,384.7102050781250000,688.7650756835938000,7.3922691345214840,31.6572895050048830,116,3,727,802,65,2150894783,2152379963,2157349320,2151432278,2420,0,-11,21765
1341688184,6469,18.6200008392334000,7.7045998573303220,35.0199012756347660,388.0549011230469000,679.4364013671875000,7.7087860107421875,31.3975296020507800,119,3,720,809,64,2154829046,2157695084,2167914924,2156078468,2426,0,-10,56992
1341688263,6469,16.5699996948242200,8.6007995605468750,35.0074005126953100,382.1532897949219000,646.3823852539062000,8.8215103149414060,31.0131797790527340,115,3,689,734,64,2155925348,2158157992,2165793631,2155196699,654,-1,-11,10181
1341688333,6504,15.6700000762939450,10.3577003479003900,35.0447998046875000,373.2998962402344000,601.5438842773438000,10.3105096817016600,30.5536003112792970,117,3,663,699,63,2157511460,2160441608,2170079692,2157167537,1759,2,-11,917
1341688573,6469,12.6000003814697270,11.0864000320434570,35.0567016601562500,365.3261108398437500,578.0927124023438000,11.0806798934936520,30.4294109344482420,140,3,523,782,61,2163226276,2166636630,2176151478,2160645568,2119,-1,-9,26275
1341688634,6471,9.1400003433227540,11.1104001998901370,35.0567016601562500,364.7933044433594000,577.3837890625000000,11.1038799285888670,30.4346599578857420,136,3,480,803,64,2178926432,2183434811,2194469389,2170986321,2287,-1,-11,57296
1341688697,6470,4.7300000190734860,11.1120004653930660,35.0564002990722660,364.7421875000000000,577.2091064453125000,11.1095895767211910,30.4335193634033200,115,3,394,749,48,2257139136,2274398975,2301787267,2242326947,1876,-1,-7,12156
1341688749,6469,2.8599998950958250,0.0000000000000000,0.0000000000000000,364.8005065917969000,576.7905273437500000,11.1232900619506840,30.4253501892089840,121,3,227,657,48,2293666980,2316394002,2349021279,2282980576,2477,5,-11,3560
1341688771,6469,1.7699999809265137,0.0000000000000000,0.0000000000000000,364.4012145996094000,576.8850708007812000,11.1201896667480470,30.4391193389892580,115,3,189,727,55,2302518166,2323629188,2350561398,2294700429,2467,7,-22,1342
